period_start,C,m1,H,J0,J1,J2,J3,J4,J5,JA,JB,JC,JD,JJ,JK,JN,#
2015-05-13 00:02:50,0.03,0.85,0.00,23.39,27.15,30.02,4.72,27.39,1002.73,2034.08,3016.94,3121.73,3308.58,349.79,342.33,15.05,0000 0000 0000 0000 000000
2015-05-13 00:07:52,0.04,0.85,0.00,23.40,27.15,30.01,4.74,27.37,1002.89,2034.04,3016.22,3121.23,3308.08,350.22,342.74,15.08,0000 0000 0000 0000 000000
2015-05-13 00:12:53,0.01,0.85,0.00,23.40,27.15,30.00,4.66,27.40,1002.94,2034.07,3016.00,3121.04,3308.00,349.72,342.28,15.11,0000 0000 0000 0000 000000
2015-05-13 00:17:55,-0.00,0.85,0.00,23.42,27.15,30.00,4.72,27.38,1002.93,2034.03,3015.89,3121.00,3307.98,350.30,342.70,15.14,0000 0000 0000 0000 000000
2015-05-13 00:22:56,0.02,0.85,0.00,23.43,27.16,29.99,4.70,27.34,1002.87,2034.04,3015.17,3121.00,3307.82,350.03,342.58,15.17,0000 0000 0000 0000 000000
2015-05-13 00:27:57,0.02,0.86,0.00,23.44,27.16,29.98,4.77,27.35,1002.79,2034.01,3014.99,3120.97,3307.12,350.29,342.69,15.20,0000 0000 0000 0000 000000
2015-05-13 00:32:59,0.01,0.86,0.00,23.45,27.17,29.98,4.67,27.46,1002.94,2034.02,3014.77,3120.90,3307.01,349.70,342.32,15.23,0000 0000 0000 0000 000000
2015-05-13 00:38:00,0.03,0.86,0.00,23.47,27.17,29.96,4.73,27.41,1002.94,2034.04,3014.15,3120.68,3307.06,350.25,342.74,15.26,0000 0000 0000 0000 000000
2015-05-13 00:43:02,0.03,0.86,0.00,23.48,27.17,29.96,4.74,27.36,1002.95,2034.04,3013.98,3120.10,3306.94,349.85,342.38,15.29,0000 0000 0000 0000 000000
2015-05-13 00:48:03,0.04,0.86,0.00,23.49,27.17,29.96,4.72,27.34,1002.98,2034.05,3013.30,3120.01,3306.48,350.09,342.54,15.32,0000 0000 0000 0000 000000
2015-05-13 00:53:04,0.01,0.86,0.00,23.51,27.17,29.93,4.75,27.35,1003.25,2034.03,3013.00,3120.00,3306.06,350.43,342.75,15.34,0000 0000 0000 0000 000000
2015-05-13 00:58:06,0.01,0.86,0.00,23.52,27.17,29.93,4.76,27.28,1003.26,2034.02,3012.88,3119.98,3306.00,349.63,342.44,15.37,0000 0000 0000 0000 000000
2015-05-13 01:03:07,0.04,0.86,0.00,23.53,27.17,29.93,4.70,27.36,1003.18,2034.00,3012.17,3119.71,3305.85,349.56,342.36,15.40,0000 0000 0000 0000 000000
2015-05-13 01:08:08,0.04,0.86,0.00,23.55,27.19,29.94,4.73,27.43,1002.98,2034.01,3012.00,3119.28,3305.33,350.04,342.52,15.43,0000 0000 0000 0000 000000
2015-05-13 01:13:10,0.01,0.86,0.00,23.57,27.20,29.94,4.71,27.43,1002.96,2034.01,3011.78,3119.08,3305.02,350.00,342.46,15.46,0000 0000 0000 0000 000000
2015-05-13 01:18:11,0.02,0.86,0.00,23.59,27.20,29.94,4.75,27.41,1002.97,2034.00,3011.06,3119.00,3304.99,350.25,342.56,15.49,0000 0000 0000 0000 000000
2015-05-13 01:23:12,0.00,0.86,0.00,23.60,27.20,29.93,4.74,27.51,1002.98,2034.00,3011.00,3118.99,3304.94,350.35,342.57,15.52,0000 0000 0000 0000 000000
2015-05-13 01:28:14,0.03,0.86,0.00,23.60,27.20,29.95,4.71,27.42,1002.97,2034.00,3010.70,3118.94,3304.43,349.62,342.01,15.55,0000 0000 0000 0000 000000
2015-05-13 01:33:15,0.04,0.87,0.00,23.60,27.21,29.95,4.67,27.43,1003.17,2034.00,3010.05,3118.50,3304.03,350.01,342.45,15.58,0000 0000 0000 0000 000000
2015-05-13 01:38:16,0.01,0.87,0.00,23.61,27.22,29.91,4.69,27.52,1003.43,2034.00,3009.99,3118.15,3304.04,349.88,342.07,15.61,0000 0000 0000 0000 000000
2015-05-13 01:43:18,0.02,0.87,0.00,23.60,27.22,29.97,4.76,27.44,1003.43,2034.00,3009.36,3118.00,3303.99,350.07,342.48,15.64,0000 0000 0000 0000 000000
2015-05-13 01:48:19,0.01,0.87,0.00,23.62,27.22,29.95,4.72,27.37,1003.43,2034.00,3009.04,3118.00,3303.71,350.08,342.54,15.67,0000 0000 0000 0000 000000
2015-05-13 01:53:20,0.01,0.87,0.00,23.60,27.22,29.97,4.64,27.41,1003.42,2034.00,3008.97,3117.98,3303.13,350.20,342.84,15.70,0000 0000 0000 0000 000000
2015-05-13 01:58:22,0.03,0.87,0.00,23.60,27.22,30.03,4.67,27.38,1003.43,2034.00,3008.28,3117.89,3303.00,349.80,342.27,15.73,0000 0000 0000 0000 000000
2015-05-13 02:03:23,0.03,0.87,0.00,23.60,27.22,30.00,4.66,27.42,1003.41,2034.00,3008.00,3117.29,3302.98,349.66,342.03,15.76,0000 0000 0000 0000 000000
2015-05-13 02:08:25,0.01,0.87,0.00,23.60,27.22,30.00,4.72,27.47,1003.43,2034.00,3007.93,3117.10,3302.79,349.67,342.16,15.78,0000 0000 0000 0000 000000
2015-05-13 02:13:26,0.04,0.87,0.00,23.62,27.23,30.00,4.69,27.35,1003.43,2034.00,3007.37,3117.00,3302.17,349.81,342.22,15.81,0000 0000 0000 0000 000000
2015-05-13 02:18:27,0.01,0.87,0.00,23.63,27.24,29.98,4.61,27.34,1003.43,2034.00,3007.01,3117.00,3302.01,349.45,341.90,15.84,0000 0000 0000 0000 000000
2015-05-13 02:23:28,0.00,0.87,0.00,23.65,27.25,29.99,4.80,27.43,1003.43,2034.00,3006.98,3116.99,3301.99,350.64,342.99,15.87,0000 0000 0000 0000 000000
2015-05-13 02:28:30,0.03,0.87,0.00,23.67,27.25,29.97,4.85,27.50,1003.43,2034.00,3006.56,3116.85,3301.80,350.63,342.97,15.90,0000 0000 0000 0000 000000
2015-05-13 02:33:31,0.06,0.88,0.00,23.67,27.25,29.99,4.67,27.42,1003.43,2034.00,3006.00,3116.16,3301.13,349.64,342.13,15.93,0000 0000 0000 0000 000000
2015-05-13 02:38:32,0.00,0.88,0.00,23.70,27.25,29.97,4.70,27.41,1003.43,2034.00,3005.81,3116.05,3301.27,350.11,342.53,15.96,0000 0000 0000 0000 000000
2015-05-13 02:43:33,0.02,0.88,0.00,23.72,27.25,29.95,4.73,27.50,1003.43,2034.00,3005.06,3116.00,3300.99,350.03,342.37,15.99,0000 0000 0000 0000 000000
2015-05-13 02:48:34,0.01,0.88,0.00,23.74,27.25,29.91,4.72,27.47,1003.46,2033.99,3004.99,3115.99,3300.57,350.14,342.43,16.02,0000 0000 0000 0000 000000
2015-05-13 02:53:35,0.03,0.88,0.00,23.76,27.26,29.95,4.76,27.50,1003.46,2033.99,3004.47,3115.85,3300.08,349.84,342.31,16.05,0000 0000 0000 0000 000000
2015-05-13 02:58:37,0.04,0.88,0.00,23.78,27.27,29.94,4.73,27.54,1003.76,2033.97,3004.01,3115.19,3300.00,350.03,342.37,16.08,0000 0000 0000 0000 000000
2015-05-13 03:03:39,0.01,0.88,0.00,23.81,27.27,29.91,4.78,27.52,1003.77,2033.98,3003.84,3115.01,3299.96,350.54,342.81,16.11,0000 0000 0000 0000 000000
2015-05-13 03:08:40,0.04,0.88,0.00,23.83,27.27,29.87,4.78,27.47,1003.79,2033.98,3003.11,3115.00,3299.48,350.62,342.90,16.14,0000 0000 0000 0000 000000
2015-05-13 03:13:41,0.01,0.88,0.00,23.85,27.29,29.88,4.83,27.63,1003.90,2033.98,3002.99,3114.98,3299.05,350.70,342.97,16.17,0000 0000 0000 0000 000000
2015-05-13 03:18:43,0.03,0.88,0.00,23.85,27.30,29.88,4.70,27.56,1003.89,2033.98,3002.49,3114.79,3298.99,350.03,342.34,16.19,0000 0000 0000 0000 000000
2015-05-13 03:23:44,0.04,0.88,0.00,23.89,27.30,29.88,4.79,27.49,1003.93,2033.99,3002.02,3114.16,3298.89,350.57,342.91,16.22,0000 0000 0000 0000 000000
2015-05-13 03:28:45,0.04,0.88,0.00,23.92,27.30,29.86,4.73,27.62,1004.07,2033.97,3001.72,3114.02,3298.17,349.93,342.25,16.25,0000 0000 0000 0000 000000
2015-05-13 03:33:46,-0.00,0.88,0.00,23.94,27.32,29.89,4.83,27.53,1004.24,2033.92,3001.06,3113.98,3297.99,350.31,342.51,16.28,0000 0000 0000 0000 000000
2015-05-13 03:38:48,0.02,0.88,0.00,23.94,27.32,29.89,4.73,27.61,1004.29,2033.89,3000.84,3113.85,3297.97,350.45,342.82,16.31,0000 0000 0000 0000 000000
2015-05-13 03:43:49,0.07,0.89,0.00,23.95,27.32,29.91,4.65,27.42,1004.40,2033.93,3000.06,3113.23,3297.63,349.78,342.28,16.34,0000 0000 0000 0000 000000
2015-05-13 03:48:50,0.02,0.89,0.00,23.99,27.33,29.91,4.74,27.43,1004.31,2033.96,2999.99,3113.03,3297.09,350.37,342.70,16.37,0000 0000 0000 0000 000000
2015-05-13 03:53:51,0.01,0.89,0.00,24.01,27.35,29.91,4.61,27.45,1003.99,2033.87,2999.49,3113.00,3297.00,349.72,341.96,16.40,0000 0000 0000 0000 000000
2015-05-13 03:58:53,-0.01,0.89,0.00,24.02,27.35,29.92,4.63,27.35,1004.32,2033.73,2999.01,3112.98,3296.86,349.87,342.17,16.43,0000 0000 0000 0000 000000
2015-05-13 04:03:54,0.03,0.89,0.00,24.02,27.35,29.93,4.72,27.49,1004.35,2033.65,2998.79,3112.86,3296.23,350.22,342.59,16.46,0000 0000 0000 0000 000000
2015-05-13 04:08:55,0.04,0.89,0.00,24.00,27.37,29.95,4.72,27.50,1004.41,2033.65,2998.06,3112.32,3296.02,350.22,342.49,16.49,0000 0000 0000 0000 000000
2015-05-13 04:13:57,0.01,0.89,0.00,24.01,27.37,29.96,4.74,27.51,1004.40,2033.65,2997.94,3112.04,3296.00,350.07,342.49,16.52,0000 0000 0000 0000 000000
2015-05-13 04:18:58,0.01,0.89,0.00,24.04,27.37,29.97,4.73,27.43,1004.36,2033.51,2997.21,3112.00,3295.96,350.36,342.58,16.55,0000 0000 0000 0000 000000
2015-05-13 04:23:59,0.05,0.89,0.00,24.05,27.37,29.98,4.75,27.44,1004.41,2033.63,2997.00,3111.99,3295.65,349.97,342.04,16.58,0000 0000 0000 0000 000000
2015-05-13 04:29:00,-0.02,0.89,0.00,24.05,27.39,29.98,4.72,27.40,1004.41,2033.35,2996.46,3111.84,3295.03,349.78,342.13,16.60,0000 0000 0000 0000 000000
2015-05-13 04:34:02,0.04,0.89,0.00,24.03,27.40,29.99,4.73,27.49,1004.41,2033.31,2996.01,3111.33,3294.99,349.96,342.12,16.63,0000 0000 0000 0000 000000
2015-05-13 04:39:03,-0.01,0.89,0.00,24.04,27.40,29.99,4.63,27.60,1004.41,2033.15,2995.75,3111.06,3294.80,349.23,341.56,16.66,0000 0000 0000 0000 000000
2015-05-13 04:44:04,0.05,0.89,0.00,24.06,27.40,30.00,4.81,27.50,1004.44,2033.18,2995.03,3111.00,3294.06,350.53,342.73,16.69,0000 0000 0000 0000 000000
2015-05-13 04:49:05,0.02,0.89,0.00,24.06,27.40,30.00,4.76,27.57,1004.43,2033.25,2994.95,3110.99,3294.00,350.41,342.93,16.72,0000 0000 0000 0000 000000
2015-05-13 04:54:06,0.02,0.89,0.00,24.06,27.42,30.01,4.69,27.48,1004.42,2033.25,2994.24,3110.89,3293.97,349.82,342.09,16.75,0000 0000 0000 0000 000000
2015-05-13 04:59:07,0.03,0.90,0.00,24.09,27.42,30.02,4.69,27.43,1004.43,2033.10,2993.98,3110.26,3293.45,350.05,342.33,16.78,0000 0000 0000 0000 000000
2015-05-13 05:04:09,0.03,0.90,0.00,24.11,27.42,30.00,4.74,27.49,1004.42,2033.05,2993.42,3110.04,3293.02,350.06,342.29,16.81,0000 0000 0000 0000 000000
2015-05-13 05:09:10,0.02,0.90,0.00,24.12,27.42,30.01,4.65,27.52,1004.44,2033.12,2993.04,3110.01,3293.00,349.78,341.98,16.84,0000 0000 0000 0000 000000
2015-05-13 05:14:12,-0.01,0.90,0.00,24.11,27.43,30.02,4.75,27.61,1004.64,2033.06,2992.95,3109.99,3292.87,350.39,342.66,16.87,0000 0000 0000 0000 000000
2015-05-13 05:19:13,0.06,0.90,0.00,24.12,27.45,30.02,4.64,27.54,1004.70,2033.07,2992.21,3109.90,3292.28,349.15,341.49,16.90,0000 0000 0000 0000 000000
2015-05-13 05:24:14,0.02,0.90,0.00,24.15,27.45,30.00,4.67,27.45,1004.78,2033.02,2992.00,3109.33,3292.00,349.46,341.96,16.93,0000 0000 0000 0000 000000
2015-05-13 05:29:16,0.02,0.90,0.00,24.16,27.45,30.00,4.72,27.56,1004.87,2033.01,2991.76,3109.02,3291.96,349.67,342.14,16.96,0000 0000 0000 0000 000000
2015-05-13 05:34:17,0.03,0.90,0.00,24.17,27.45,30.01,4.77,27.56,1004.85,2033.00,2991.05,3109.00,3291.41,350.17,342.35,16.99,0000 0000 0000 0000 000000
2015-05-13 05:39:18,0.01,0.90,0.00,24.16,27.46,30.03,4.69,27.55,1004.89,2033.00,2990.87,3108.98,3291.45,350.10,342.43,17.01,0000 0000 0000 0000 000000
2015-05-13 05:44:20,0.04,0.90,0.00,24.18,27.47,30.03,4.70,27.55,1004.90,2033.00,2990.14,3108.77,3291.00,349.80,342.09,17.04,0000 0000 0000 0000 000000
2015-05-13 05:49:21,0.03,0.90,0.00,24.21,27.47,30.04,4.63,27.52,1004.90,2033.00,2990.00,3108.21,3290.80,350.11,342.65,17.07,0000 0000 0000 0000 000000
2015-05-13 05:54:22,0.04,0.90,0.00,24.21,27.47,30.04,4.77,27.56,1004.91,2033.00,2989.54,3108.01,3290.12,350.11,342.34,17.10,0000 0000 0000 0000 000000
2015-05-13 05:59:24,0.00,0.91,0.00,24.20,27.49,30.06,4.80,27.66,1004.90,2033.00,2989.02,3107.99,3290.01,350.71,342.69,17.13,0000 0000 0000 0000 000000
2015-05-13 06:04:25,0.01,0.91,0.00,24.20,27.50,30.07,4.77,27.59,1004.97,2033.00,2988.72,3107.89,3289.96,350.24,342.37,17.16,0000 0000 0000 0000 000000
2015-05-13 06:09:26,0.07,0.91,0.00,24.22,27.50,30.08,4.74,27.70,1005.11,2033.00,2988.07,3107.31,3289.54,350.04,342.17,17.19,0000 0000 0000 0000 000000
2015-05-13 06:14:28,0.01,0.91,0.00,24.22,27.50,30.08,4.73,27.62,1005.24,2033.00,2987.93,3107.02,3289.03,350.39,342.66,17.22,0000 0000 0000 0000 000000
2015-05-13 06:19:29,0.02,0.91,0.00,24.22,27.50,30.09,4.76,27.58,1005.18,2033.00,2987.27,3107.00,3289.00,350.61,343.02,17.25,0000 0000 0000 0000 000000
2015-05-13 06:24:30,0.00,0.91,0.00,24.24,27.52,30.10,4.70,27.51,1005.16,2033.00,2986.99,3106.99,3288.93,349.77,342.11,17.28,0000 0000 0000 0000 000000
2015-05-13 06:29:31,0.05,0.91,0.00,24.25,27.52,30.10,4.69,27.50,1004.92,2033.00,2986.51,3106.85,3288.20,349.84,342.40,17.31,0000 0000 0000 0000 000000
2015-05-13 06:34:32,0.03,0.91,0.00,24.22,27.52,30.10,4.65,27.52,1004.98,2033.00,2986.02,3106.39,3288.02,349.87,342.11,17.34,0000 0000 0000 0000 000000
2015-05-13 06:39:34,0.03,0.91,0.00,24.20,27.52,30.11,4.69,27.55,1005.31,2033.00,2985.69,3106.05,3287.95,350.20,342.78,17.37,0000 0000 0000 0000 000000
2015-05-13 06:44:35,0.02,0.91,0.00,24.20,27.52,30.13,4.55,27.47,1005.39,2033.00,2985.02,3106.00,3287.35,349.08,341.63,17.40,0000 0000 0000 0000 000000
2015-05-13 06:49:36,0.01,0.91,0.00,24.19,27.52,30.14,4.78,27.56,1005.39,2033.00,2984.81,3105.95,3287.04,350.31,342.83,17.42,0000 0000 0000 0000 000000
2015-05-13 06:54:38,0.03,0.92,0.00,24.17,27.52,30.14,4.71,27.49,1005.41,2033.00,2984.08,3105.55,3287.00,350.00,342.50,17.45,0000 0000 0000 0000 000000
2015-05-13 06:59:39,0.04,0.92,0.00,24.15,27.53,30.15,4.76,27.56,1005.43,2033.00,2983.93,3105.09,3286.69,350.64,343.22,17.48,0000 0000 0000 0000 000000
2015-05-13 07:04:40,0.04,0.92,0.00,24.15,27.53,30.18,4.72,27.57,1005.41,2033.00,2983.17,3105.00,3286.10,349.49,342.13,17.51,0000 0000 0000 0000 000000
2015-05-13 07:09:42,0.00,0.92,0.00,24.14,27.53,30.19,4.66,27.61,1005.40,2033.00,2982.99,3104.99,3286.00,349.89,342.43,17.54,0000 0000 0000 0000 000000
2015-05-13 07:14:43,0.05,0.92,0.00,24.11,27.54,30.20,4.63,27.53,1005.67,2033.00,2982.26,3104.72,3285.86,349.67,342.27,17.57,0000 0000 0000 0000 000000
2015-05-13 07:19:44,0.04,0.92,0.00,24.08,27.53,30.21,4.73,27.53,1005.87,2033.00,2981.93,3104.14,3285.19,350.20,342.96,17.60,0000 0000 0000 0000 000000
2015-05-13 07:24:46,0.03,0.92,0.00,24.08,27.53,30.22,4.56,27.49,1005.87,2032.99,2981.12,3104.00,3285.00,349.23,342.03,17.63,0000 0000 0000 0000 000000
2015-05-13 07:29:47,0.01,0.92,0.00,24.12,27.52,30.25,4.68,27.58,1005.88,2032.99,2980.85,3103.96,3284.85,349.66,342.34,17.66,0000 0000 0000 0000 000000
2015-05-13 07:34:48,0.05,0.92,0.00,24.12,27.52,30.24,4.73,27.68,1005.90,2032.99,2980.11,3103.83,3284.31,350.18,342.90,17.69,0000 0000 0000 0000 000000
2015-05-13 07:39:49,0.03,0.92,0.00,24.12,27.52,30.25,4.74,27.58,1006.17,2032.99,2979.98,3103.28,3284.29,350.10,342.96,17.72,0000 0000 0000 0000 000000
2015-05-13 07:44:50,0.03,0.93,0.00,24.13,27.52,30.24,4.71,27.59,1006.35,2032.99,2979.43,3103.02,3283.99,349.78,342.74,17.75,0000 0000 0000 0000 000000
2015-05-13 07:49:51,0.01,0.93,0.00,24.18,27.52,30.23,4.72,27.58,1006.36,2032.99,2979.01,3103.00,3283.80,349.97,342.89,17.78,0000 0000 0000 0000 000000
2015-05-13 07:54:53,0.02,0.93,0.00,24.23,27.52,30.23,4.69,27.65,1006.36,2032.99,2978.86,3102.98,3283.14,349.78,342.54,17.81,0000 0000 0000 0000 000000
2015-05-13 07:59:54,0.03,0.93,0.00,24.28,27.52,30.20,4.68,27.63,1006.36,2032.99,2978.14,3102.86,3283.00,349.85,342.58,17.83,0000 0000 0000 0000 000000
2015-05-13 08:04:55,0.03,0.93,0.00,24.31,27.52,30.16,4.74,27.71,1006.36,2032.99,2977.99,3102.26,3283.00,350.16,342.85,17.86,0000 0000 0000 0000 000000
2015-05-13 08:09:56,0.02,0.93,0.00,24.35,27.52,30.13,4.67,27.64,1006.36,2032.99,2977.73,3102.05,3282.80,350.21,342.66,17.89,0000 0000 0000 0000 000000
2015-05-13 08:14:57,0.03,0.93,0.00,24.37,27.52,30.11,4.75,27.57,1006.45,2032.99,2977.03,3102.00,3282.11,350.10,342.77,17.92,0000 0000 0000 0000 000000
2015-05-13 08:19:58,0.00,0.93,0.00,24.37,27.52,30.10,4.72,27.55,1006.77,2032.99,2976.87,3101.99,3282.00,350.01,342.79,17.95,0000 0000 0000 0000 000000
2015-05-13 08:24:59,0.04,0.93,0.00,24.35,27.52,30.10,4.79,27.63,1006.84,2032.99,2976.10,3101.67,3281.91,349.98,342.74,17.98,0000 0000 0000 0000 000000
2015-05-13 08:30:01,0.05,0.93,0.00,24.32,27.53,30.09,4.68,27.52,1006.85,2032.99,2975.90,3101.08,3281.20,349.98,342.84,18.01,0000 0000 0000 0000 000000
2015-05-13 08:35:02,0.02,0.93,0.00,24.33,27.53,30.10,4.63,27.59,1006.85,2032.98,2975.39,3101.00,3281.01,349.45,342.45,18.04,0000 0000 0000 0000 000000
2015-05-13 08:40:03,0.01,0.94,0.00,24.36,27.53,30.10,4.66,27.51,1006.86,2032.99,2975.00,3100.99,3280.99,350.04,342.72,18.07,0000 0000 0000 0000 000000
2015-05-13 08:45:05,0.04,0.94,0.00,24.37,27.54,30.10,4.81,27.59,1006.85,2032.99,2974.27,3100.87,3280.58,350.52,343.18,18.10,0000 0000 0000 0000 000000
2015-05-13 08:50:06,0.05,0.94,0.00,24.35,27.55,30.12,4.66,27.52,1006.96,2032.98,2974.01,3100.29,3280.04,349.36,342.51,18.13,0000 0000 0000 0000 000000
2015-05-13 08:55:07,0.01,0.94,0.00,24.33,27.55,30.12,4.72,27.52,1007.22,2032.99,2973.91,3100.03,3280.00,349.69,342.70,18.16,0000 0000 0000 0000 000000
2015-05-13 09:00:09,0.03,0.94,0.00,24.29,27.55,30.12,4.72,27.55,1007.32,2032.99,2973.13,3100.00,3279.88,350.18,343.08,18.19,0000 0000 0000 0000 000000
2015-05-13 09:05:10,0.02,0.94,0.00,24.27,27.55,30.12,4.76,27.48,1007.34,2032.98,2972.97,3099.98,3279.27,350.45,343.25,18.22,0000 0000 0000 0000 000000
2015-05-13 09:10:12,0.06,0.94,0.00,24.26,27.55,30.12,4.73,27.52,1007.34,2032.97,2972.23,3099.45,3279.00,350.12,343.06,18.24,0000 0000 0000 0000 000000
2015-05-13 09:15:13,0.01,0.94,0.00,24.23,27.55,30.13,4.68,27.51,1007.34,2032.96,2971.97,3099.02,3278.89,350.45,343.45,18.27,0000 0000 0000 0000 000000
2015-05-13 09:20:14,0.04,0.94,0.00,24.20,27.55,30.15,4.72,27.56,1007.36,2032.97,2971.31,3099.00,3278.26,349.83,342.87,18.30,0000 0000 0000 0000 000000
2015-05-13 09:25:16,0.01,0.94,0.00,24.16,27.55,30.17,4.68,27.60,1007.49,2032.97,2970.99,3098.97,3278.00,350.29,343.94,18.33,0000 0000 0000 0000 000000
2015-05-13 09:30:17,0.05,0.94,0.00,24.15,27.55,30.19,4.75,27.58,1007.57,2032.96,2970.39,3098.53,3277.99,350.30,343.81,18.36,0000 0000 0000 0000 000000
2015-05-13 09:35:18,0.02,0.95,0.00,24.12,27.55,30.18,4.79,27.57,1007.56,2032.96,2969.99,3098.05,3277.81,350.44,343.59,18.39,0000 0000 0000 0000 000000
2015-05-13 09:40:20,0.03,0.95,0.00,24.09,27.55,30.22,4.80,27.65,1007.35,2032.96,2969.67,3098.00,3277.51,350.31,343.48,18.42,0000 0000 0000 0000 000000
2015-05-13 09:45:21,0.01,0.95,0.00,24.04,27.55,30.27,4.69,27.63,1007.34,2032.97,2969.06,3097.99,3277.00,350.01,343.34,18.45,0000 0000 0000 0000 000000
2015-05-13 09:50:23,0.02,0.95,0.00,24.02,27.55,30.29,4.71,27.57,1007.34,2032.97,2968.69,3097.87,3276.97,350.32,343.65,18.48,0000 0000 0000 0000 000000
2015-05-13 09:55:24,0.06,0.95,0.00,24.02,27.55,30.32,4.74,27.64,1007.53,2032.98,2968.05,3097.46,3276.54,350.13,343.41,18.51,0000 0000 0000 0000 000000
2015-05-13 10:00:25,0.02,0.95,0.00,24.01,27.55,30.33,4.74,27.61,1007.83,2032.98,2967.99,3097.05,3276.04,349.90,343.53,18.54,0000 0000 0000 0000 000000
2015-05-13 10:05:26,0.02,0.95,0.00,24.00,27.55,30.32,4.85,27.58,1007.83,2032.98,2967.55,3097.00,3276.00,350.80,343.90,18.57,0000 0000 0000 0000 000000
2015-05-13 10:10:27,0.01,0.95,0.00,23.97,27.55,30.33,4.67,27.60,1007.83,2032.97,2967.01,3096.99,3275.95,349.52,343.09,18.60,0000 0000 0000 0000 000000
2015-05-13 10:15:29,0.02,0.95,0.00,23.93,27.53,30.32,4.72,27.62,1007.81,2032.99,2966.83,3096.95,3275.67,349.71,343.41,18.63,0000 0000 0000 0000 000000
2015-05-13 10:20:30,0.04,0.95,0.00,23.93,27.52,30.24,4.72,27.74,1007.78,2032.99,2966.16,3096.69,3275.12,349.75,343.35,18.65,0000 0000 0000 0000 000000
2015-05-13 10:25:32,0.03,0.96,0.00,23.95,27.52,30.17,4.72,27.66,1007.83,2032.99,2965.99,3096.10,3275.00,350.05,343.72,18.68,0000 0000 0000 0000 000000
2015-05-13 10:30:33,0.02,0.96,0.00,23.93,27.52,30.05,4.77,27.59,1007.85,2032.99,2965.44,3096.00,3274.96,350.17,343.47,18.71,0000 0000 0000 0000 000000
2015-05-13 10:35:34,0.00,0.96,0.00,23.92,27.52,30.03,4.72,27.65,1007.85,2032.99,2965.01,3096.00,3274.83,349.64,343.16,18.74,0000 0000 0000 0000 000000
2015-05-13 10:40:35,0.03,0.96,0.00,23.91,27.50,30.08,4.79,27.58,1007.84,2032.99,2964.83,3095.94,3274.48,350.37,344.15,18.77,0000 0000 0000 0000 000000
2015-05-13 10:45:36,0.02,0.96,0.00,23.89,27.50,30.08,4.76,27.54,1007.86,2032.99,2964.26,3095.89,3274.01,349.86,343.66,18.80,0000 0000 0000 0000 000000
2015-05-13 10:50:38,0.02,0.96,0.00,23.85,27.50,30.13,4.67,27.61,1007.86,2032.99,2964.01,3095.53,3274.00,349.47,343.19,18.83,0000 0000 0000 0000 000000
2015-05-13 10:55:39,0.01,0.96,0.00,23.82,27.50,30.15,4.79,27.68,1007.84,2032.99,2963.97,3095.14,3273.98,350.62,344.32,18.86,0000 0000 0000 0000 000000
2015-05-13 11:00:40,0.03,0.96,0.00,23.80,27.50,30.19,4.64,27.56,1007.84,2032.99,2963.35,3095.03,3273.79,349.45,343.14,18.89,0000 0000 0000 0000 000000
2015-05-13 11:05:41,0.02,0.96,0.00,23.75,27.49,30.25,4.77,27.61,1007.85,2033.00,2962.99,3095.00,3273.15,349.71,343.51,18.92,0000 0000 0000 0000 000000
2015-05-13 11:10:42,0.00,0.96,0.00,23.73,27.47,30.25,4.75,27.53,1007.93,2033.01,2962.93,3095.00,3273.02,350.25,344.04,18.95,0000 0000 0000 0000 000000
2015-05-13 11:15:44,0.02,0.96,0.00,23.73,27.47,30.22,4.74,27.54,1008.00,2033.02,2962.52,3094.98,3273.01,349.51,343.33,18.98,0000 0000 0000 0000 000000
2015-05-13 11:20:45,0.02,0.96,0.00,23.74,27.47,30.20,4.64,27.57,1008.01,2033.04,2962.04,3094.91,3273.00,349.48,343.59,19.01,0000 0000 0000 0000 000000
2015-05-13 11:25:46,0.02,0.96,0.00,23.77,27.47,30.14,4.77,27.73,1008.19,2033.11,2961.99,3094.69,3272.94,349.62,343.76,19.04,0000 0000 0000 0000 000000
2015-05-13 11:30:48,0.04,0.96,0.00,23.80,27.45,30.12,4.73,27.54,1008.22,2033.11,2961.74,3094.19,3272.72,349.79,343.69,19.06,0000 0000 0000 0000 000000
2015-05-13 11:35:49,0.03,0.97,0.00,23.82,27.45,30.10,4.71,27.61,1007.92,2033.15,2961.15,3094.05,3272.51,349.67,343.46,19.09,0000 0000 0000 0000 000000
2015-05-13 11:40:50,0.01,0.97,0.00,23.81,27.45,30.11,4.75,27.74,1007.85,2033.16,2961.01,3094.00,3272.36,349.91,343.64,19.12,0000 0000 0000 0000 000000
2015-05-13 11:45:52,0.01,0.97,0.00,23.80,27.44,30.14,4.67,27.63,1007.84,2033.22,2960.93,3094.00,3272.00,349.82,343.81,19.15,0000 0000 0000 0000 000000
2015-05-13 11:50:53,0.03,0.97,0.00,23.80,27.42,30.18,4.70,27.64,1007.84,2033.30,2960.29,3093.99,3271.96,350.08,343.90,19.18,0000 0000 0000 0000 000000
2015-05-13 11:55:54,0.03,0.97,0.00,23.75,27.42,30.21,4.71,27.69,1007.85,2033.31,2960.00,3093.90,3271.67,349.62,343.35,19.21,0000 0000 0000 0000 000000
2015-05-13 12:00:56,0.04,0.97,0.00,23.68,27.42,30.22,4.80,27.69,1007.85,2033.37,2959.97,3093.53,3271.23,350.54,344.44,19.24,0000 0000 0000 0000 000000
2015-05-13 12:05:57,0.07,0.97,0.00,23.61,27.40,30.24,4.78,27.65,1007.86,2033.50,2959.45,3093.10,3271.02,350.42,344.44,19.27,0000 0000 0000 0000 000000
2015-05-13 12:10:59,0.03,0.97,0.00,23.56,27.40,30.24,4.68,27.59,1007.86,2033.68,2959.04,3093.05,3271.00,349.30,343.44,19.30,0000 0000 0000 0000 000000
2015-05-13 12:16:00,0.04,0.97,0.00,23.50,27.40,30.22,4.73,27.68,1007.86,2033.80,2959.00,3093.00,3270.98,349.79,343.96,19.33,0000 0000 0000 0000 000000
2015-05-13 12:21:01,-0.00,0.97,0.00,23.46,27.37,30.21,4.68,27.58,1007.86,2033.75,2958.58,3092.99,3270.87,349.51,343.95,19.36,0000 0000 0000 0000 000000
2015-05-13 12:26:02,0.05,0.97,0.00,23.42,27.37,30.18,4.78,27.72,1007.84,2033.88,2958.03,3092.98,3270.42,349.92,344.12,19.39,0000 0000 0000 0000 000000
2015-05-13 12:31:04,0.01,0.98,0.00,23.36,27.36,30.17,4.78,27.77,1007.84,2033.93,2957.97,3092.96,3270.04,350.27,344.75,19.42,0000 0000 0000 0000 000000
2015-05-13 12:36:05,0.03,0.98,0.00,23.32,27.35,30.15,4.79,27.83,1007.85,2033.95,2957.45,3092.69,3270.04,350.19,344.39,19.45,0000 0000 0000 0000 000000
2015-05-13 12:41:05,0.04,0.98,0.00,23.30,27.34,30.14,4.70,27.78,1007.88,2033.97,2957.12,3092.46,3270.02,349.89,344.27,19.47,0000 0000 0000 0000 000000
2015-05-13 12:46:07,0.01,0.98,0.00,23.28,27.32,30.13,4.68,27.59,1008.12,2033.98,2956.99,3092.10,3269.97,350.24,344.69,19.50,0000 0000 0000 0000 000000
2015-05-13 12:51:08,0.02,0.98,0.00,23.23,27.31,30.12,4.77,27.62,1008.30,2033.99,2956.74,3092.04,3269.89,350.32,344.73,19.53,0000 0000 0000 0000 000000
2015-05-13 12:56:09,0.02,0.98,0.00,23.18,27.30,30.09,4.71,27.56,1008.30,2033.99,2956.10,3092.02,3269.44,349.87,344.59,19.56,0000 0000 0000 0000 000000
2015-05-13 13:01:10,0.01,0.98,0.00,23.17,27.29,30.05,4.71,27.61,1008.31,2033.99,2956.00,3092.00,3269.04,350.36,345.03,19.59,0000 0000 0000 0000 000000